Location: Alsip
(41.6689°N, 87.7387°W)
Time: 14:24:56
(UTC+00:00)

Cosmos 1242 Rocket - Pass Details

Date: 14 July 2020
Orbit: 448 x 487 km, 81.2° (Epoch: 12 August)

Event Time Altitude Azimuth Distance (km) Brightness Sun altitude
Rises 09:34:02 0° 337° (NNW) 2,463 6.4 -9.3°
Reaches altitude 10° 09:36:20 10° 324° (NW) 1,589 5.2 -8.9°
Maximum altitude 09:39:13 25° 268° (W) 964 3.6 -8.5°
Drops below altitude 10° 09:42:05 10° 211° (SSW) 1,588 4.6 -8.1°
Enters shadow 09:42:17 - 210° (SSW) 1,657 4.7 -8.1°
